#datetime,building,power
2023-12-17T00:00:00,prt,26.79
2023-12-17T00:01:00,prt,22.68
2023-12-17T00:02:00,prt,21.45
2023-12-17T00:03:00,prt,21.52
2023-12-17T00:04:00,prt,20.43
2023-12-17T00:05:00,prt,20.48
2023-12-17T00:06:00,prt,21.05
2023-12-17T00:07:00,prt,20.51
2023-12-17T00:08:00,prt,21.09
2023-12-17T00:09:00,prt,20.82
2023-12-17T00:10:00,prt,21.27
2023-12-17T00:11:00,prt,21.85
2023-12-17T00:12:00,prt,21.21
2023-12-17T00:13:00,prt,21.26
2023-12-17T00:14:00,prt,22.61
2023-12-17T00:15:00,prt,23.56
2023-12-17T00:16:00,prt,24.36
2023-12-17T00:17:00,prt,24.87
2023-12-17T00:18:00,prt,23.91
2023-12-17T00:19:00,prt,25.31
2023-12-17T00:20:00,prt,24.47
2023-12-17T00:21:00,prt,23.52
2023-12-17T00:22:00,prt,26.10
2023-12-17T00:23:00,prt,24.16
2023-12-17T00:24:00,prt,22.68
2023-12-17T00:25:00,prt,23.77
2023-12-17T00:26:00,prt,24.30
2023-12-17T00:27:00,prt,24.60
2023-12-17T00:28:00,prt,25.84
2023-12-17T00:29:00,prt,29.86
2023-12-17T00:30:00,prt,28.02
2023-12-17T00:31:00,prt,28.02
2023-12-17T00:32:00,prt,24.06
2023-12-17T00:33:00,prt,22.09
2023-12-17T00:34:00,prt,21.63
2023-12-17T00:35:00,prt,18.97
2023-12-17T00:36:00,prt,20.08
2023-12-17T00:37:00,prt,21.59
2023-12-17T00:38:00,prt,21.28
2023-12-17T00:39:00,prt,23.24
2023-12-17T00:40:00,prt,21.14
2023-12-17T00:41:00,prt,21.54
2023-12-17T00:42:00,prt,19.44
2023-12-17T00:43:00,prt,20.34
2023-12-17T00:44:00,prt,22.65
2023-12-17T00:45:00,prt,22.94
2023-12-17T00:46:00,prt,21.93
2023-12-17T00:47:00,prt,21.87
2023-12-17T00:48:00,prt,21.88
2023-12-17T00:49:00,prt,22.91
2023-12-17T00:50:00,prt,21.27
2023-12-17T00:51:00,prt,21.59
2023-12-17T00:52:00,prt,19.96
2023-12-17T00:53:00,prt,19.94
2023-12-17T00:54:00,prt,20.58
2023-12-17T00:55:00,prt,22.46
2023-12-17T00:56:00,prt,21.29
2023-12-17T00:57:00,prt,20.68
2023-12-17T00:58:00,prt,18.56
2023-12-17T00:59:00,prt,20.79
2023-12-17T01:00:00,prt,21.89
2023-12-17T01:01:00,prt,22.04
2023-12-17T01:02:00,prt,23.03
2023-12-17T01:03:00,prt,24.91
2023-12-17T01:04:00,prt,21.92
2023-12-17T01:05:00,prt,22.50
2023-12-17T01:06:00,prt,22.58
2023-12-17T01:07:00,prt,22.90
2023-12-17T01:08:00,prt,19.96
2023-12-17T01:09:00,prt,18.09
2023-12-17T01:10:00,prt,17.90
2023-12-17T01:11:00,prt,18.74
2023-12-17T01:12:00,prt,18.36
2023-12-17T01:13:00,prt,18.86
2023-12-17T01:14:00,prt,19.56
2023-12-17T01:15:00,prt,19.24
2023-12-17T01:16:00,prt,21.30
2023-12-17T01:17:00,prt,23.27
2023-12-17T01:18:00,prt,19.74
2023-12-17T01:19:00,prt,19.77
2023-12-17T01:20:00,prt,20.89
2023-12-17T01:21:00,prt,21.16
2023-12-17T01:22:00,prt,20.25
2023-12-17T01:23:00,prt,24.29
2023-12-17T01:24:00,prt,24.72
2023-12-17T01:25:00,prt,24.03
2023-12-17T01:26:00,prt,21.12
2023-12-17T01:27:00,prt,21.20
2023-12-17T01:28:00,prt,18.15
2023-12-17T01:29:00,prt,17.97
2023-12-17T01:30:00,prt,19.64
2023-12-17T01:31:00,prt,21.39
2023-12-17T01:32:00,prt,21.66
2023-12-17T01:33:00,prt,21.33
2023-12-17T01:34:00,prt,20.79
2023-12-17T01:35:00,prt,19.89
2023-12-17T01:36:00,prt,20.34
2023-12-17T01:37:00,prt,20.67
2023-12-17T01:38:00,prt,20.65
2023-12-17T01:39:00,prt,22.06
2023-12-17T01:40:00,prt,21.75
2023-12-17T01:41:00,prt,20.03
2023-12-17T01:42:00,prt,18.76
2023-12-17T01:43:00,prt,17.87
2023-12-17T01:44:00,prt,22.43
2023-12-17T01:45:00,prt,20.85
2023-12-17T01:46:00,prt,20.73
2023-12-17T01:47:00,prt,20.53
2023-12-17T01:48:00,prt,22.06
2023-12-17T01:49:00,prt,18.61
2023-12-17T01:50:00,prt,17.84
2023-12-17T01:51:00,prt,19.03
2023-12-17T01:52:00,prt,20.82
2023-12-17T01:53:00,prt,21.11
2023-12-17T01:54:00,prt,25.22
2023-12-17T01:55:00,prt,23.31
2023-12-17T01:56:00,prt,22.47
2023-12-17T01:57:00,prt,23.95
2023-12-17T01:58:00,prt,21.49
2023-12-17T01:59:00,prt,17.83
2023-12-17T02:00:00,prt,17.14
2023-12-17T02:01:00,prt,17.60
2023-12-17T02:02:00,prt,22.12
2023-12-17T02:03:00,prt,24.30
2023-12-17T02:04:00,prt,26.22
2023-12-17T02:05:00,prt,27.85
2023-12-17T02:06:00,prt,24.38
2023-12-17T02:07:00,prt,24.25
2023-12-17T02:08:00,prt,23.86
2023-12-17T02:09:00,prt,22.80
2023-12-17T02:10:00,prt,22.99
2023-12-17T02:11:00,prt,22.42
2023-12-17T02:12:00,prt,22.32
2023-12-17T02:13:00,prt,20.85
2023-12-17T02:14:00,prt,21.07
2023-12-17T02:15:00,prt,20.82
2023-12-17T02:16:00,prt,21.05
2023-12-17T02:17:00,prt,22.21
2023-12-17T02:18:00,prt,22.17
2023-12-17T02:19:00,prt,21.99
2023-12-17T02:20:00,prt,19.15
2023-12-17T02:21:00,prt,18.43
2023-12-17T02:22:00,prt,18.61
2023-12-17T02:23:00,prt,19.31
2023-12-17T02:24:00,prt,19.31
2023-12-17T02:25:00,prt,19.58
2023-12-17T02:26:00,prt,20.47
2023-12-17T02:27:00,prt,21.41
2023-12-17T02:28:00,prt,22.26
2023-12-17T02:29:00,prt,27.85
2023-12-17T02:30:00,prt,23.02
2023-12-17T02:31:00,prt,19.82
2023-12-17T02:32:00,prt,19.08
2023-12-17T02:33:00,prt,21.54
2023-12-17T02:34:00,prt,21.45
2023-12-17T02:35:00,prt,22.50
2023-12-17T02:36:00,prt,22.85
2023-12-17T02:37:00,prt,19.05
2023-12-17T02:38:00,prt,20.33
2023-12-17T02:39:00,prt,21.30
2023-12-17T02:40:00,prt,21.96
2023-12-17T02:41:00,prt,22.07
2023-12-17T02:42:00,prt,21.33
2023-12-17T02:43:00,prt,18.66
2023-12-17T02:44:00,prt,20.16
2023-12-17T02:45:00,prt,19.25
2023-12-17T02:46:00,prt,17.92
2023-12-17T02:47:00,prt,17.93
2023-12-17T02:48:00,prt,22.20
2023-12-17T02:49:00,prt,25.85
2023-12-17T02:50:00,prt,25.30
2023-12-17T02:51:00,prt,27.54
2023-12-17T02:52:00,prt,22.25
2023-12-17T02:53:00,prt,18.58
2023-12-17T02:54:00,prt,19.90
2023-12-17T02:55:00,prt,20.50
2023-12-17T02:56:00,prt,21.01
2023-12-17T02:57:00,prt,21.14
2023-12-17T02:58:00,prt,19.94
2023-12-17T02:59:00,prt,19.41
2023-12-17T03:00:00,prt,18.84
2023-12-17T03:01:00,prt,18.65
2023-12-17T03:02:00,prt,19.36
2023-12-17T03:03:00,prt,18.51
2023-12-17T03:04:00,prt,24.17
2023-12-17T03:05:00,prt,23.65
2023-12-17T03:06:00,prt,24.72
2023-12-17T03:07:00,prt,26.39
2023-12-17T03:08:00,prt,22.44
2023-12-17T03:09:00,prt,25.67
2023-12-17T03:10:00,prt,25.28
2023-12-17T03:11:00,prt,26.14
2023-12-17T03:12:00,prt,24.69
2023-12-17T03:13:00,prt,25.29
2023-12-17T03:14:00,prt,19.37
2023-12-17T03:15:00,prt,18.77
2023-12-17T03:16:00,prt,19.93
2023-12-17T03:17:00,prt,19.46
2023-12-17T03:18:00,prt,18.90
2023-12-17T03:19:00,prt,19.46
2023-12-17T03:20:00,prt,19.98
2023-12-17T03:21:00,prt,19.94
2023-12-17T03:22:00,prt,18.14
2023-12-17T03:23:00,prt,18.04
2023-12-17T03:24:00,prt,21.75
2023-12-17T03:25:00,prt,17.56
2023-12-17T03:26:00,prt,17.26
2023-12-17T03:27:00,prt,18.60
2023-12-17T03:28:00,prt,19.37
2023-12-17T03:29:00,prt,19.35
2023-12-17T03:30:00,prt,22.40
2023-12-17T03:31:00,prt,22.12
2023-12-17T03:32:00,prt,20.65
2023-12-17T03:33:00,prt,21.60
2023-12-17T03:34:00,prt,22.38
2023-12-17T03:35:00,prt,22.96
2023-12-17T03:36:00,prt,22.63
2023-12-17T03:37:00,prt,21.96
2023-12-17T03:38:00,prt,21.41
2023-12-17T03:39:00,prt,18.55
2023-12-17T03:40:00,prt,19.55
2023-12-17T03:41:00,prt,21.32
2023-12-17T03:42:00,prt,21.48
2023-12-17T03:43:00,prt,20.62
2023-12-17T03:44:00,prt,19.87
2023-12-17T03:45:00,prt,21.07
2023-12-17T03:46:00,prt,19.82
2023-12-17T03:47:00,prt,20.66
2023-12-17T03:48:00,prt,19.40
2023-12-17T03:49:00,prt,19.28
2023-12-17T03:50:00,prt,20.83
2023-12-17T03:51:00,prt,19.23
2023-12-17T03:52:00,prt,23.33
2023-12-17T03:53:00,prt,22.50
2023-12-17T03:54:00,prt,22.84
2023-12-17T03:55:00,prt,23.84
2023-12-17T03:56:00,prt,23.69
2023-12-17T03:57:00,prt,21.28
2023-12-17T03:58:00,prt,21.65
2023-12-17T03:59:00,prt,21.62
2023-12-17T04:00:00,prt,20.74
2023-12-17T04:01:00,prt,20.07
2023-12-17T04:02:00,prt,20.12
2023-12-17T04:03:00,prt,19.08
2023-12-17T04:04:00,prt,23.11
2023-12-17T04:05:00,prt,22.49
2023-12-17T04:06:00,prt,24.52
2023-12-17T04:07:00,prt,25.77
2023-12-17T04:08:00,prt,22.32
2023-12-17T04:09:00,prt,24.07
2023-12-17T04:10:00,prt,20.43
2023-12-17T04:11:00,prt,20.03
2023-12-17T04:12:00,prt,18.97
2023-12-17T04:13:00,prt,19.21
2023-12-17T04:14:00,prt,20.70
2023-12-17T04:15:00,prt,20.60
2023-12-17T04:16:00,prt,23.26
2023-12-17T04:17:00,prt,23.51
2023-12-17T04:18:00,prt,22.47
2023-12-17T04:19:00,prt,20.62
2023-12-17T04:20:00,prt,20.65
2023-12-17T04:21:00,prt,18.92
2023-12-17T04:22:00,prt,20.93
2023-12-17T04:23:00,prt,17.48
2023-12-17T04:24:00,prt,17.49
2023-12-17T04:25:00,prt,19.66
2023-12-17T04:26:00,prt,20.18
2023-12-17T04:27:00,prt,20.13
2023-12-17T04:28:00,prt,20.36
2023-12-17T04:29:00,prt,19.98
2023-12-17T04:30:00,prt,18.80
2023-12-17T04:31:00,prt,18.27
2023-12-17T04:32:00,prt,18.17
2023-12-17T04:33:00,prt,17.46
2023-12-17T04:34:00,prt,18.09
2023-12-17T04:35:00,prt,20.88
2023-12-17T04:36:00,prt,21.84
2023-12-17T04:37:00,prt,23.31
2023-12-17T04:38:00,prt,26.36
2023-12-17T04:39:00,prt,26.26
2023-12-17T04:40:00,prt,23.14
2023-12-17T04:41:00,prt,19.00
2023-12-17T04:42:00,prt,20.79
2023-12-17T04:43:00,prt,20.44
2023-12-17T04:44:00,prt,20.04
2023-12-17T04:45:00,prt,18.39
2023-12-17T04:46:00,prt,18.01
2023-12-17T04:47:00,prt,21.10
2023-12-17T04:48:00,prt,18.95
2023-12-17T04:49:00,prt,18.54
2023-12-17T04:50:00,prt,19.04
2023-12-17T04:51:00,prt,19.11
2023-12-17T04:52:00,prt,21.08
2023-12-17T04:53:00,prt,22.84
2023-12-17T04:54:00,prt,22.05
2023-12-17T04:55:00,prt,22.76
2023-12-17T04:56:00,prt,25.32
2023-12-17T04:57:00,prt,25.63
2023-12-17T04:58:00,prt,25.50
2023-12-17T04:59:00,prt,25.44
2023-12-17T05:00:00,prt,26.07
2023-12-17T05:01:00,prt,20.53
2023-12-17T05:02:00,prt,18.93
2023-12-17T05:03:00,prt,20.88
2023-12-17T05:04:00,prt,20.48
2023-12-17T05:05:00,prt,21.28
2023-12-17T05:06:00,prt,21.22
2023-12-17T05:07:00,prt,21.06
2023-12-17T05:08:00,prt,23.43
2023-12-17T05:09:00,prt,22.39
2023-12-17T05:10:00,prt,23.29
2023-12-17T05:11:00,prt,21.88
2023-12-17T05:12:00,prt,19.82
2023-12-17T05:13:00,prt,18.99
2023-12-17T05:14:00,prt,18.45
2023-12-17T05:15:00,prt,18.41
2023-12-17T05:16:00,prt,17.10
2023-12-17T05:17:00,prt,17.10
2023-12-17T05:18:00,prt,21.62
2023-12-17T05:19:00,prt,21.07
2023-12-17T05:20:00,prt,22.31
2023-12-17T05:21:00,prt,21.71
2023-12-17T05:22:00,prt,21.13
2023-12-17T05:23:00,prt,18.42
2023-12-17T05:24:00,prt,17.84
2023-12-17T05:25:00,prt,19.79
2023-12-17T05:26:00,prt,21.39
2023-12-17T05:27:00,prt,19.99
2023-12-17T05:28:00,prt,19.64
2023-12-17T05:29:00,prt,20.14
2023-12-17T05:30:00,prt,20.69
2023-12-17T05:31:00,prt,22.06
2023-12-17T05:32:00,prt,22.49
2023-12-17T05:33:00,prt,23.50
2023-12-17T05:34:00,prt,22.66
2023-12-17T05:35:00,prt,20.39
2023-12-17T05:36:00,prt,22.60
2023-12-17T05:37:00,prt,21.13
2023-12-17T05:38:00,prt,21.06
2023-12-17T05:39:00,prt,29.66
2023-12-17T05:40:00,prt,29.08
2023-12-17T05:41:00,prt,27.22
2023-12-17T05:42:00,prt,25.31
2023-12-17T05:43:00,prt,23.75
2023-12-17T05:44:00,prt,23.39
2023-12-17T05:45:00,prt,22.74
2023-12-17T05:46:00,prt,20.99
2023-12-17T05:47:00,prt,20.96
2023-12-17T05:48:00,prt,21.42
2023-12-17T05:49:00,prt,20.81
2023-12-17T05:50:00,prt,20.60
2023-12-17T05:51:00,prt,24.63
2023-12-17T05:52:00,prt,23.84
2023-12-17T05:53:00,prt,24.96
2023-12-17T05:54:00,prt,27.14
2023-12-17T05:55:00,prt,27.27
2023-12-17T05:56:00,prt,27.63
2023-12-17T05:57:00,prt,23.17
2023-12-17T05:58:00,prt,25.30
2023-12-17T05:59:00,prt,23.76
2023-12-17T06:00:00,prt,25.65
2023-12-17T06:01:00,prt,21.37
2023-12-17T06:02:00,prt,21.57
2023-12-17T06:03:00,prt,36.03
2023-12-17T06:04:00,prt,20.93
2023-12-17T06:05:00,prt,21.43
2023-12-17T06:06:00,prt,22.66
2023-12-17T06:07:00,prt,22.46
2023-12-17T06:08:00,prt,21.96
2023-12-17T06:09:00,prt,21.92
2023-12-17T06:10:00,prt,26.04
2023-12-17T06:11:00,prt,26.05
2023-12-17T06:12:00,prt,25.29
2023-12-17T06:13:00,prt,20.14
2023-12-17T06:14:00,prt,38.46
2023-12-17T06:15:00,prt,23.40
2023-12-17T06:16:00,prt,25.43
2023-12-17T06:17:00,prt,26.34
2023-12-17T06:18:00,prt,25.10
2023-12-17T06:19:00,prt,26.09
2023-12-17T06:20:00,prt,26.43
2023-12-17T06:21:00,prt,26.94
2023-12-17T06:22:00,prt,27.57
2023-12-17T06:23:00,prt,28.25
2023-12-17T06:24:00,prt,27.64
2023-12-17T06:25:00,prt,26.83
2023-12-17T06:26:00,prt,32.93
2023-12-17T06:27:00,prt,30.22
2023-12-17T06:28:00,prt,30.18
2023-12-17T06:29:00,prt,29.78
2023-12-17T06:30:00,prt,30.80
2023-12-17T06:31:00,prt,32.61
2023-12-17T06:32:00,prt,32.80
2023-12-17T06:33:00,prt,32.48
2023-12-17T06:34:00,prt,27.29
2023-12-17T06:35:00,prt,28.28
2023-12-17T06:36:00,prt,29.72
2023-12-17T06:37:00,prt,31.84
2023-12-17T06:38:00,prt,31.92
2023-12-17T06:39:00,prt,45.33
2023-12-17T06:40:00,prt,30.57
2023-12-17T06:41:00,prt,29.49
2023-12-17T06:42:00,prt,29.41
2023-12-17T06:43:00,prt,29.61
2023-12-17T06:44:00,prt,31.71
2023-12-17T06:45:00,prt,33.84
2023-12-17T06:46:00,prt,35.02
2023-12-17T06:47:00,prt,34.36
2023-12-17T06:48:00,prt,33.94
2023-12-17T06:49:00,prt,31.62
2023-12-17T06:50:00,prt,28.17
2023-12-17T06:51:00,prt,26.55
2023-12-17T06:52:00,prt,26.57
2023-12-17T06:53:00,prt,27.34
2023-12-17T06:54:00,prt,31.64
2023-12-17T06:55:00,prt,31.64
2023-12-17T06:56:00,prt,43.49
2023-12-17T06:57:00,prt,26.99
2023-12-17T06:58:00,prt,43.25
2023-12-17T06:59:00,prt,34.40
2023-12-17T07:00:00,prt,31.36
2023-12-17T07:01:00,prt,32.95
2023-12-17T07:02:00,prt,29.18
2023-12-17T07:03:00,prt,35.90
2023-12-17T07:04:00,prt,36.15
2023-12-17T07:05:00,prt,34.37
2023-12-17T07:06:00,prt,37.67
2023-12-17T07:07:00,prt,37.91
2023-12-17T07:08:00,prt,36.21
2023-12-17T07:09:00,prt,32.60
2023-12-17T07:10:00,prt,32.53
2023-12-17T07:11:00,prt,32.73
2023-12-17T07:12:00,prt,31.88
2023-12-17T07:13:00,prt,31.83
2023-12-17T07:14:00,prt,31.53
2023-12-17T07:15:00,prt,31.41
2023-12-17T07:16:00,prt,31.07
2023-12-17T07:17:00,prt,32.04
2023-12-17T07:18:00,prt,33.82
2023-12-17T07:19:00,prt,38.24
2023-12-17T07:20:00,prt,37.19
2023-12-17T07:21:00,prt,40.11
2023-12-17T07:22:00,prt,38.75
2023-12-17T07:23:00,prt,38.90
2023-12-17T07:24:00,prt,39.33
2023-12-17T07:25:00,prt,37.08
2023-12-17T07:26:00,prt,36.30
2023-12-17T07:27:00,prt,33.85
2023-12-17T07:28:00,prt,34.18
2023-12-17T07:29:00,prt,28.62
2023-12-17T07:30:00,prt,29.72
2023-12-17T07:31:00,prt,30.39
2023-12-17T07:32:00,prt,30.97
2023-12-17T07:33:00,prt,29.83
2023-12-17T07:34:00,prt,30.00
2023-12-17T07:35:00,prt,34.24
2023-12-17T07:36:00,prt,31.72
2023-12-17T07:37:00,prt,30.99
2023-12-17T07:38:00,prt,31.10
2023-12-17T07:39:00,prt,33.98
2023-12-17T07:40:00,prt,30.38
2023-12-17T07:41:00,prt,28.35
2023-12-17T07:42:00,prt,28.98
2023-12-17T07:43:00,prt,31.24
2023-12-17T07:44:00,prt,34.96
2023-12-17T07:45:00,prt,34.16
2023-12-17T07:46:00,prt,34.13
2023-12-17T07:47:00,prt,34.10
2023-12-17T07:48:00,prt,31.25
2023-12-17T07:49:00,prt,32.21
2023-12-17T07:50:00,prt,43.55
2023-12-17T07:51:00,prt,28.66
2023-12-17T07:52:00,prt,27.57
2023-12-17T07:53:00,prt,27.24
2023-12-17T07:54:00,prt,26.97
2023-12-17T07:55:00,prt,28.81
2023-12-17T07:56:00,prt,31.33
2023-12-17T07:57:00,prt,30.63
2023-12-17T07:58:00,prt,30.51
2023-12-17T07:59:00,prt,29.64
2023-12-17T08:00:00,prt,27.32
2023-12-17T08:01:00,prt,26.32
2023-12-17T08:02:00,prt,26.11
2023-12-17T08:03:00,prt,25.79
2023-12-17T08:04:00,prt,29.47
2023-12-17T08:05:00,prt,27.13
2023-12-17T08:06:00,prt,31.40
2023-12-17T08:07:00,prt,30.41
2023-12-17T08:08:00,prt,33.51
2023-12-17T08:09:00,prt,33.93
2023-12-17T08:10:00,prt,34.27
2023-12-17T08:11:00,prt,31.21
2023-12-17T08:12:00,prt,28.81
2023-12-17T08:13:00,prt,28.59
2023-12-17T08:14:00,prt,30.68
2023-12-17T08:15:00,prt,30.71
2023-12-17T08:16:00,prt,32.39
2023-12-17T08:17:00,prt,29.10
2023-12-17T08:18:00,prt,28.46
2023-12-17T08:19:00,prt,27.20
2023-12-17T08:20:00,prt,27.68
2023-12-17T08:21:00,prt,26.81
2023-12-17T08:22:00,prt,25.80
2023-12-17T08:23:00,prt,24.61
2023-12-17T08:24:00,prt,22.44
2023-12-17T08:25:00,prt,22.83
2023-12-17T08:26:00,prt,22.84
2023-12-17T08:27:00,prt,23.41
2023-12-17T08:28:00,prt,26.99
2023-12-17T08:29:00,prt,28.71
2023-12-17T08:30:00,prt,28.03
2023-12-17T08:31:00,prt,27.28
2023-12-17T08:32:00,prt,31.10
2023-12-17T08:33:00,prt,27.82
2023-12-17T08:34:00,prt,27.65
2023-12-17T08:35:00,prt,28.72
2023-12-17T08:36:00,prt,26.23
2023-12-17T08:37:00,prt,25.87
2023-12-17T08:38:00,prt,25.15
2023-12-17T08:39:00,prt,24.30
2023-12-17T08:40:00,prt,23.94
2023-12-17T08:41:00,prt,25.50
2023-12-17T08:42:00,prt,24.01
2023-12-17T08:43:00,prt,23.89
2023-12-17T08:44:00,prt,23.91
2023-12-17T08:45:00,prt,27.10
2023-12-17T08:46:00,prt,26.26
2023-12-17T08:47:00,prt,25.60
2023-12-17T08:48:00,prt,24.07
2023-12-17T08:49:00,prt,26.18
2023-12-17T08:50:00,prt,29.16
2023-12-17T08:51:00,prt,26.35
2023-12-17T08:52:00,prt,25.39
2023-12-17T08:53:00,prt,26.93
2023-12-17T08:54:00,prt,24.42
2023-12-17T08:55:00,prt,24.36
2023-12-17T08:56:00,prt,24.30
2023-12-17T08:57:00,prt,31.28
2023-12-17T08:58:00,prt,31.18
2023-12-17T08:59:00,prt,28.71
2023-12-17T09:00:00,prt,26.41
2023-12-17T09:01:00,prt,23.45
2023-12-17T09:02:00,prt,22.28
2023-12-17T09:03:00,prt,22.10
2023-12-17T09:04:00,prt,23.21
2023-12-17T09:05:00,prt,23.16
2023-12-17T09:06:00,prt,23.11
2023-12-17T09:07:00,prt,22.99
2023-12-17T09:08:00,prt,26.40
2023-12-17T09:09:00,prt,27.56
2023-12-17T09:10:00,prt,26.18
2023-12-17T09:11:00,prt,31.08
2023-12-17T09:12:00,prt,29.18
2023-12-17T09:13:00,prt,30.40
2023-12-17T09:14:00,prt,29.41
2023-12-17T09:15:00,prt,29.04
2023-12-17T09:16:00,prt,25.87
2023-12-17T09:17:00,prt,25.10
2023-12-17T09:18:00,prt,23.17
2023-12-17T09:19:00,prt,23.35
2023-12-17T09:20:00,prt,25.32
2023-12-17T09:21:00,prt,26.33
2023-12-17T09:22:00,prt,27.09
2023-12-17T09:23:00,prt,27.62
2023-12-17T09:24:00,prt,27.27
2023-12-17T09:25:00,prt,25.14
2023-12-17T09:26:00,prt,23.59
2023-12-17T09:27:00,prt,23.82
2023-12-17T09:28:00,prt,23.74
2023-12-17T09:29:00,prt,23.45
2023-12-17T09:30:00,prt,22.93
2023-12-17T09:31:00,prt,23.68
2023-12-17T09:32:00,prt,23.65
2023-12-17T09:33:00,prt,26.35
2023-12-17T09:34:00,prt,28.29
2023-12-17T09:35:00,prt,28.11
2023-12-17T09:36:00,prt,28.12
2023-12-17T09:37:00,prt,29.33
2023-12-17T09:38:00,prt,27.99
2023-12-17T09:39:00,prt,24.27
2023-12-17T09:40:00,prt,24.26
2023-12-17T09:41:00,prt,25.44
2023-12-17T09:42:00,prt,25.76
2023-12-17T09:43:00,prt,30.49
2023-12-17T09:44:00,prt,30.03
2023-12-17T09:45:00,prt,30.40
2023-12-17T09:46:00,prt,27.69
2023-12-17T09:47:00,prt,29.57
2023-12-17T09:48:00,prt,31.23
2023-12-17T09:49:00,prt,28.56
2023-12-17T09:50:00,prt,25.73
2023-12-17T09:51:00,prt,22.30
2023-12-17T09:52:00,prt,25.77
2023-12-17T09:53:00,prt,24.48
2023-12-17T09:54:00,prt,24.11
2023-12-17T09:55:00,prt,26.83
2023-12-17T09:56:00,prt,28.61
2023-12-17T09:57:00,prt,27.14
2023-12-17T09:58:00,prt,26.53
2023-12-17T09:59:00,prt,29.68
2023-12-17T10:00:00,prt,36.79
2023-12-17T10:01:00,prt,24.38
2023-12-17T10:02:00,prt,24.85
2023-12-17T10:03:00,prt,26.04
2023-12-17T10:04:00,prt,31.96
2023-12-17T10:05:00,prt,28.23
2023-12-17T10:06:00,prt,27.33
2023-12-17T10:07:00,prt,26.86
2023-12-17T10:08:00,prt,27.67
2023-12-17T10:09:00,prt,28.18
2023-12-17T10:10:00,prt,31.34
2023-12-17T10:11:00,prt,32.81
2023-12-17T10:12:00,prt,28.80
2023-12-17T10:13:00,prt,27.87
2023-12-17T10:14:00,prt,30.77
2023-12-17T10:15:00,prt,29.93
2023-12-17T10:16:00,prt,29.46
2023-12-17T10:17:00,prt,27.98
2023-12-17T10:18:00,prt,31.62
2023-12-17T10:19:00,prt,30.71
2023-12-17T10:20:00,prt,32.14
2023-12-17T10:21:00,prt,29.93
2023-12-17T10:22:00,prt,27.53
2023-12-17T10:23:00,prt,25.25
2023-12-17T10:24:00,prt,26.70
2023-12-17T10:25:00,prt,25.28
2023-12-17T10:26:00,prt,24.22
2023-12-17T10:27:00,prt,24.83
2023-12-17T10:28:00,prt,24.42
2023-12-17T10:29:00,prt,23.99
2023-12-17T10:30:00,prt,24.99
2023-12-17T10:31:00,prt,24.43
2023-12-17T10:32:00,prt,23.06
2023-12-17T10:33:00,prt,25.84
2023-12-17T10:34:00,prt,26.93
2023-12-17T10:35:00,prt,28.91
2023-12-17T10:36:00,prt,29.81
2023-12-17T10:37:00,prt,26.00
2023-12-17T10:38:00,prt,25.63
2023-12-17T10:39:00,prt,28.60
2023-12-17T10:40:00,prt,26.08
2023-12-17T10:41:00,prt,25.55
2023-12-17T10:42:00,prt,26.29
2023-12-17T10:43:00,prt,25.84
2023-12-17T10:44:00,prt,21.89
2023-12-17T10:45:00,prt,21.90
2023-12-17T10:46:00,prt,23.27
2023-12-17T10:47:00,prt,25.08
2023-12-17T10:48:00,prt,40.61
2023-12-17T10:49:00,prt,27.15
2023-12-17T10:50:00,prt,25.89
2023-12-17T10:51:00,prt,30.16
2023-12-17T10:52:00,prt,25.48
2023-12-17T10:53:00,prt,26.43
2023-12-17T10:54:00,prt,25.66
2023-12-17T10:55:00,prt,38.15
2023-12-17T10:56:00,prt,26.55
2023-12-17T10:57:00,prt,30.53
2023-12-17T10:58:00,prt,31.59
2023-12-17T10:59:00,prt,32.48
2023-12-17T11:00:00,prt,30.94
2023-12-17T11:01:00,prt,30.21
2023-12-17T11:02:00,prt,27.57
2023-12-17T11:03:00,prt,30.00
2023-12-17T11:04:00,prt,29.92
2023-12-17T11:05:00,prt,29.14
2023-12-17T11:06:00,prt,24.06
2023-12-17T11:07:00,prt,24.45
2023-12-17T11:08:00,prt,27.06
2023-12-17T11:09:00,prt,25.67
2023-12-17T11:10:00,prt,26.12
2023-12-17T11:11:00,prt,25.19
2023-12-17T11:12:00,prt,26.42
2023-12-17T11:13:00,prt,24.32
2023-12-17T11:14:00,prt,25.41
2023-12-17T11:15:00,prt,25.01
2023-12-17T11:16:00,prt,37.82
2023-12-17T11:17:00,prt,25.30
2023-12-17T11:18:00,prt,24.13
2023-12-17T11:19:00,prt,24.08
2023-12-17T11:20:00,prt,24.75
2023-12-17T11:21:00,prt,25.86
2023-12-17T11:22:00,prt,34.14
2023-12-17T11:23:00,prt,33.52
2023-12-17T11:24:00,prt,31.78
2023-12-17T11:25:00,prt,30.92
2023-12-17T11:26:00,prt,29.98
2023-12-17T11:27:00,prt,31.32
2023-12-17T11:28:00,prt,24.61
2023-12-17T11:29:00,prt,24.46
2023-12-17T11:30:00,prt,22.90
2023-12-17T11:31:00,prt,23.13
2023-12-17T11:32:00,prt,24.58
2023-12-17T11:33:00,prt,25.65
2023-12-17T11:34:00,prt,25.45
2023-12-17T11:35:00,prt,23.00
2023-12-17T11:36:00,prt,24.71
2023-12-17T11:37:00,prt,25.61
2023-12-17T11:38:00,prt,40.08
2023-12-17T11:39:00,prt,38.77
2023-12-17T11:40:00,prt,24.22
2023-12-17T11:41:00,prt,25.50
2023-12-17T11:42:00,prt,26.66
2023-12-17T11:43:00,prt,26.10
2023-12-17T11:44:00,prt,27.00
2023-12-17T11:45:00,prt,28.13
2023-12-17T11:46:00,prt,29.87
2023-12-17T11:47:00,prt,44.42
2023-12-17T11:48:00,prt,29.20
2023-12-17T11:49:00,prt,30.76
2023-12-17T11:50:00,prt,27.19
2023-12-17T11:51:00,prt,28.07
2023-12-17T11:52:00,prt,29.97
2023-12-17T11:53:00,prt,30.81
2023-12-17T11:54:00,prt,29.30
2023-12-17T11:55:00,prt,29.49
2023-12-17T11:56:00,prt,42.40
2023-12-17T11:57:00,prt,29.34
2023-12-17T11:58:00,prt,29.95
2023-12-17T11:59:00,prt,29.78
2023-12-17T12:00:00,prt,29.46
2023-12-17T12:01:00,prt,27.30
2023-12-17T12:02:00,prt,27.41
2023-12-17T12:03:00,prt,27.76
2023-12-17T12:04:00,prt,27.67
2023-12-17T12:05:00,prt,26.46
2023-12-17T12:06:00,prt,26.67
2023-12-17T12:07:00,prt,28.23
2023-12-17T12:08:00,prt,24.16
2023-12-17T12:09:00,prt,24.61
2023-12-17T12:10:00,prt,26.94
2023-12-17T12:11:00,prt,29.00
2023-12-17T12:12:00,prt,28.47
2023-12-17T12:13:00,prt,29.44
2023-12-17T12:14:00,prt,25.07
2023-12-17T12:15:00,prt,24.73
2023-12-17T12:16:00,prt,26.87
2023-12-17T12:17:00,prt,29.05
2023-12-17T12:18:00,prt,28.56
2023-12-17T12:19:00,prt,29.80
2023-12-17T12:20:00,prt,29.45
2023-12-17T12:21:00,prt,27.47
2023-12-17T12:22:00,prt,26.81
2023-12-17T12:23:00,prt,24.86
2023-12-17T12:24:00,prt,26.05
2023-12-17T12:25:00,prt,25.49
2023-12-17T12:26:00,prt,25.44
2023-12-17T12:27:00,prt,25.49
2023-12-17T12:28:00,prt,27.96
2023-12-17T12:29:00,prt,27.94
2023-12-17T12:30:00,prt,27.91
2023-12-17T12:31:00,prt,28.49
2023-12-17T12:32:00,prt,33.29
2023-12-17T12:33:00,prt,32.08
2023-12-17T12:34:00,prt,34.72
2023-12-17T12:35:00,prt,28.55
2023-12-17T12:36:00,prt,24.19
2023-12-17T12:37:00,prt,23.65
2023-12-17T12:38:00,prt,23.69
2023-12-17T12:39:00,prt,24.20
2023-12-17T12:40:00,prt,26.16
2023-12-17T12:41:00,prt,23.85
2023-12-17T12:42:00,prt,24.02
2023-12-17T12:43:00,prt,23.45
2023-12-17T12:44:00,prt,23.30
2023-12-17T12:45:00,prt,24.49
2023-12-17T12:46:00,prt,27.94
2023-12-17T12:47:00,prt,26.57
2023-12-17T12:48:00,prt,26.27
2023-12-17T12:49:00,prt,26.41
2023-12-17T12:50:00,prt,27.17
2023-12-17T12:51:00,prt,27.18
2023-12-17T12:52:00,prt,38.89
2023-12-17T12:53:00,prt,25.32
2023-12-17T12:54:00,prt,26.66
2023-12-17T12:55:00,prt,24.92
2023-12-17T12:56:00,prt,25.81
2023-12-17T12:57:00,prt,26.83
2023-12-17T12:58:00,prt,27.09
2023-12-17T12:59:00,prt,23.41
2023-12-17T13:00:00,prt,24.05
2023-12-17T13:01:00,prt,22.74
2023-12-17T13:02:00,prt,23.06
2023-12-17T13:03:00,prt,23.29
2023-12-17T13:04:00,prt,27.05
2023-12-17T13:05:00,prt,26.53
2023-12-17T13:06:00,prt,26.50
2023-12-17T13:07:00,prt,27.00
2023-12-17T13:08:00,prt,25.60
2023-12-17T13:09:00,prt,24.80
2023-12-17T13:10:00,prt,21.70
2023-12-17T13:11:00,prt,21.77
2023-12-17T13:12:00,prt,26.01
2023-12-17T13:13:00,prt,25.56
2023-12-17T13:14:00,prt,28.75
2023-12-17T13:15:00,prt,24.95
2023-12-17T13:16:00,prt,26.04
2023-12-17T13:17:00,prt,26.29
2023-12-17T13:18:00,prt,27.68